GW0137 Weather Reports


time (UTC)temp
C
wind
direction
speed
KPH
gust
KPH
rain 1hr
cm
rain 24hr
cm
rain mn
cm
humidity
%
barometer
mb
20260505004518 19 133 0.0 4.8 0.00 0.00 0.00 57 1005.7
20260505003016 20 133 0.0 0.0 0.00 0.00 0.00 53 1005.6
20260505001515 21 142 0.0 1.6 0.00 0.00 0.00 52 1005.3
20260505000014 23 142 0.0 1.6 0.00 0.00 0.00 48 1005.3
20260504234514 24 142 0.0 3.2 0.00 0.00 0.00 40 1005.4
20260504233014 25 222 0.0 4.8 0.00 0.00 0.00 37 1005.5
20260504231513 25 222 1.6 6.4 0.00 0.00 0.00 35 1005.4
20260504230013 25 222 1.6 6.4 0.00 0.00 0.00 35 1005.1
20260504224514 26 242 3.2 8.0 0.00 0.00 0.00 34 1005.4
20260504223018 26 253 4.8 11.3 0.00 0.00 0.00 34 1005.5
20260504221510 26 75 1.6 8.0 0.00 0.00 0.00 33 1005.6
20260504220015 26 75 1.6 12.9 0.00 0.00 0.00 31 1005.5
20260504214508 26 125 1.6 11.3 0.00 0.00 0.00 36 1005.6
20260504213020 26 320 3.2 12.9 0.00 0.00 0.00 33 1005.4
20260504211508 26 52 3.2 6.4 0.00 0.00 0.00 30 1005.4
20260504210008 26 36 3.2 8.0 0.00 0.00 0.00 29 1005.5
20260504204519 26 327 3.2 14.5 0.00 0.00 0.00 30 1005.5
20260504203003 26 315 1.6 8.0 0.00 0.00 0.00 34 1005.8
20260504201502 26 100 1.6 14.5 0.00 0.00 0.00 31 1006.0
20260504200125 26 106 1.6 6.4 0.00 0.00 0.00 33 1006.3
20260504194602 26 106 4.8 16.1 0.00 0.00 0.00 33 1006.5
20260504193057 26 348 1.6 12.9 0.00 0.00 0.00 36 1006.6
20260504191559 26 268 4.8 11.3 0.00 0.00 0.00 33 1006.9
20260504190053 26 83 3.2 8.0 0.00 0.00 0.00 35 1007.0
20260504184550 25 79 1.6 8.0 0.00 0.00 0.00 36 1007.2
20260504183049 25 77 3.2 14.5 0.00 0.00 0.00 37 1007.2
20260504181548 25 63 4.8 12.9 0.00 0.00 0.00 36 1007.5
20260504180045 25 106 1.6 9.7 0.00 0.00 0.00 39 1007.7
20260504174545 25 112 3.2 9.7 0.00 0.00 0.00 37 1007.9
20260504173042 24 199 1.6 9.7 0.00 0.00 0.00 35 1008.0
20260504171547 24 305 3.2 8.0 0.00 0.00 0.00 39 1008.2
20260504081533 7 135 0.0 0.0 0.00 0.00 0.00 92 1009.1
20260504050018 9 152 0.0 0.0 0.00 0.00 0.00 90 1010.2
20260504044519 10 160 0.0 0.0 0.00 0.00 0.00 90 1010.2
20260504043021 10 165 0.0 0.0 0.00 0.00 0.00 90 1010.2
20260504041512 10 169 0.0 0.0 0.00 0.00 0.00 90 1010.1
20260504040011 10 164 0.0 0.0 0.00 0.00 0.00 90 1010.0
20260504034510 10 139 0.0 0.0 0.00 0.00 0.00 89 1010.0
20260504033010 10 135 0.0 0.0 0.00 0.00 0.00 89 1010.0
20260504031510 11 135 0.0 0.0 0.00 0.00 0.00 88 1010.0
20260504030011 11 135 0.0 0.0 0.00 0.00 0.00 87 1009.9
20260504024510 11 135 0.0 0.0 0.00 0.00 0.00 86 1009.8
20260504023009 11 135 0.0 0.0 0.00 0.00 0.00 84 1009.9
20260504021511 12 135 0.0 0.0 0.00 0.00 0.00 82 1009.7
20260504020013 12 135 0.0 0.0 0.00 0.00 0.00 81 1009.7
20260504014507 13 136 0.0 0.0 0.00 0.00 0.00 78 1009.6
20260504013010 13 136 0.0 0.0 0.00 0.00 0.00 75 1009.4
20260504011507 15 135 0.0 0.0 0.00 0.00 0.00 71 1008.9
20260504010005 15 166 0.0 0.0 0.00 0.00 0.00 66 1008.9